Find AP-JOEY

NORAD ID: 52983 Int'l Des: 2022-065 Owner: KARI Country: KR operational
LEOCIRCULARRETROGRADESSO

Live Position

Loading 3D Globe...

About AP-JOEY

Description loading...

Upcoming Passes

Passes for default location (London). Set your location on the main map for personalized predictions.

Altitude History

Loading altitude history...

Two-Line Element Set

1 52983U 22065H 26104.11623542 .00000248 00000-0 60672-4 0 9998
2 52983 98.2179 245.7208 0006879 216.0090 144.0647 14.60546304200798
Epoch: Apr 14, 2026 • Age: 10 hours

Current Status

Altitude 698.5 km
Velocity 7.51 km/s
Sub-Earth Point 18.43°N, 150.41°W
Launch Date Jun 21, 2022
Age 3.8 years
Type earth observation

Technical Details

Classification Payload
Mass 1.00 kg
Dry Mass 1.00 kg
Total Mass 1.00 kg
Length 0.10 m
Diameter 0.10 m
Span 0.10 m
Shape Box
Manufacturer KARI
Phase Status In Orbit
Owner/State KARI/KR

Most Searched